STARLINK-1511, 45767

Orbit data source: Space-Track

STARLINK-1511, 45767 is a payload satellite owned by SpaceX/Seattle (US) in LEO that was launched on Sat, 13 Jun 2020 UTC via an FALCON 9 launch vehicle from the Air Force Eastern Test Range (AFETR). Payloads include a variety of satellites, spacecraft, and rockets equipped with specific instruments for various scientific and technological missions. These include communications satellites like Starlink; space stations such as the ISS; scientific satellites like the Hubble; Earth observation satellites from companies like Planet Labs, Umbra, and HawkEye 360; GPS; miniature CubeSats for education and research; and military/defense satellites.

Not visible in the next 10 days
STARLINK-1511 details
Identifier
45767, 2020-038AP
Orbit
LEO
Last TLE update2 days ago
Origin
Flag of USSpaceX/Seattle (US)
ManufacturerSpaceX/Seattle
MissionPartially operational Commercial Communications
Bus & MotorSTARLINK, Unknown motor
Mass260 kg wet, ~248 kg dry
Launch date (UTC)
2020-06-13 (5 years ago)
Launch vehicle
FALCON 9
Launch site
Air Force Eastern Test Range (AFETR)
Object type
Payload
Rocket body
Debris
Shape & HBRBox + 1 Pan, 8.86 m
Radar Cross Section13.562 m², Large (>1 m²)

Expand to show TLE details & history

TLE from 2 days ago
0 STARLINK-1511
1 45767U 20038AP  24359.05872025  .01139056  83089-3  10723-2 0  9995
2 45767  53.0314 308.5490 0006070 105.3508 254.8197 16.11549667251269
Epoch: 2024-12-24T01:24Z
Definitive object data (Epoch: 2024-12-24T01:24:33.429Z)
Latitude-0.00005°
Longitude-165.66259°
Altitude244.567 km
Speed7.761 km/s
True Right ascension20h 34m 11s
True Declination0° 00' 00"
Sunlit
Object was in daylight at TLE epoch
Visualization TLE readout
Latitude52.94978°
Longitude-80.95017°
Altitude226.764 km
Speed7.779 km/s
Apparent Right ascension00h 28m 48s
Apparent Declination8° 12' 46"
Sunlit
Object is in full shadow
Visualization observer readout
Local Sidereal Time11:04:59
Azimuth333.263° NNW
Elevation-38.116°
Doppler factor1
Orbital elements
Apogee altitude246.901 km
Perigee altitude238.863 km
Semi-major axis6,621.019 km
Eccentricity0.000607
Inclination53.0314°
RAAN308.549°
Arg. of periapsis105.3508°
True anomaly254.75258°
Mean anomaly254.8197°
Eccentric anomaly254.78614°
Mean motion4.02862 °/min
BSTAR0.0010723
Orbital period89.36 mins
Loading maneuver chart data...

STARLINK-1511 Visibility forecast

Observer location: undefined°, undefined

STARLINK-1511 is not visible in the next 10 days
Span
Click to sort rows by Start time (UTC) header in descending order
Start Az.
Max El. time (UTC)
Max El. Az.
Max El.
End time (UTC)
End Az.
|